Location: Namasale
(1.5000°N, 32.6167°E)
Time: 20:18:21
(UTC+00:00)

Envisat - Pass Details

Date: 03 December 2021
Orbit: 764 x 766 km, 98.2° (Epoch: 25 January)

Event Time Altitude Azimuth Distance (km) Brightness Sun altitude
Rises 03:00:37 0° 354° (N) 3,215 5.9 -9.5°
Reaches altitude 10° 03:03:07 10° 345° (NNW) 2,291 5.1 -8.9°
Maximum altitude 03:07:35 32° 282° (WNW) 1,282 3.7 -7.9°
Drops below altitude 10° 03:12:05 10° 220° (SW) 2,298 5.3 -6.9°
Sets 03:14:36 0° 210° (SSW) 3,225 6.2 -6.3°
